Regional Weather Roundup
Issued by NWS

Home | Current Version | Previous Version | Graphics & Text | Print | Product List | Glossary On
Versions: 1 2 3 4 5 6 7 8 9 10 11 12 13 14 15 16 17 18 19 20 21 22 23 24 25 26 27 28 29 30 31 32 33 34 35 36 37 38 39 40 41 42 43 44 45 46 47 48 49 50
000
ASUS45 KCYS 261710
RWRWY

WYOMING REGIONAL WEATHER ROUNDUP
NATIONAL WEATHER SERVICE CHEYENNE WY
1000 AM MST MON JAN 26 2015

NOTE:  "FAIR" INDICATES FEW OR NO CLOUDS BELOW 12,000 FEET
WITH NO SIGNIFICANT WEATHER AND/OR OBSTRUCTIONS TO VISIBILITY.

WYZ001-261800-
YELLOWSTONE NATIONAL PARK

CITY           SKY/WX    TMP DP  RH WIND       PRES   REMARKS
LK YELLOWSTONE   N/A     17  16  95 CALM      30.47S
W YELLOWSTONE  NOT AVBL

$$
WYZ002>013-054>058-071-098>099-261800-
NORTHERN WYOMING

CITY           SKY/WX    TMP DP  RH WIND       PRES   REMARKS
JACKSON        CLOUDY    25  25 100 N6        30.48S WCI  18
CODY           FAIR      37  30  75 CALM      30.20R
GREYBULL       FAIR      22  20  92 S3        30.25S
WORLAND        FAIR      24  20  84 S6        30.23F WCI  17
SHERIDAN       FAIR      51  33  50 CALM      30.11R
BUFFALO        FAIR      61  26  26 S5        30.16R
GILLETTE       FAIR      56  30  37 W10       30.13R
HULETT           N/A    N/A N/A N/A MISG        N/A
NEWCASTLE      FAIR      50  30  46 NW8       30.15R

$$
WYZ014>020-022>026-101>103-261800-
CENTRAL WYOMING

CITY           SKY/WX    TMP DP  RH WIND       PRES   REMARKS
BIG PINEY      FAIR      27  20  75 SW3       30.44R
PINEDALE       FAIR      23  19  86 NW3       30.44R
DUBOIS         FAIR      43  23  45 NW16      30.35S
LANDER         FAIR      34  25  69 CALM      30.29R
RIVERTON       FAIR      35  26  69 E3        30.30S
CASPER         FAIR      47  27  45 SW23G31   30.28R
DOUGLAS        FAIR      54  27  35 NW15      30.22S

$$
WYZ021-027>030-104>119-261800-
SOUTHERN WYOMING

CITY           SKY/WX    TMP DP  RH WIND       PRES   REMARKS
EVANSTON       FAIR      36  30  79 N3        30.42S
KEMMERER       FAIR      32  27  80 NW9       30.43R WCI  24
FORT BRIDGER   FAIR      46  28  47 SW5       30.45S
ROCK SPRINGS   FAIR      39  27  62 CALM      30.42S
DIXON          FAIR      36  25  65 SE3       30.49S
RAWLINS        FAIR      44  26  49 SW5       30.41S
SARATOGA       FAIR      37  28  70 SE12      30.43F WCI  30
LARAMIE        FAIR      44  25  47 SW5       30.37R
CHEYENNE       FAIR      59  20  22 W14G26    30.28R
TORRINGTON     FAIR      53  29  39 NW12      30.20R
PINE BLUFFS    FAIR      57  25  28 NW23G30   30.24R

$$


USA.gov is the U.S. government's official web portal to all federal, state and local government web resources and services.